AEROCUBE 4.5A

Last updated on Sun Apr 12 2026 00:03:55 GMT+0000 (Coordinated Universal Time)

1 38767U 12048K 26101.17624821 .00108241 00000+0 88079-3 0 9997 2 38767 64.6336 266.3830 0031877 210.7559 149.1724 15.69425170362070
UTC large
Height (km)
Speed (km/s)
/
Latitude / Longitude
Inclination (degrees)
Orbital Period (minutes)
Azimuth
Elevation
Range (km)
Doppler Factor

Next 0 passes for location: London (51.5072 / 0.1276)

Sorry there are no passes over London.
AEROCUBE 4.5A